Location: Unspecified
(0.0000°N, 0.0000°E)
Time: 17:55:51
(UTC+00:00)

Vanguard 2 - Pass Details

Date: 23 April 2026
Orbit: 553 x 2895 km, 32.9° (Epoch: 17 May)

Event Time Altitude Azimuth Distance (km) Brightness Sun altitude
Rises 21:47:15 0° 239° (WSW) 5,350 12.1 -55.1°
Reaches altitude 10° 21:52:55 10° 219° (SW) 4,815 11.6 -56.4°
Enters shadow 21:55:06 13° 209° (SSW) 4,731 11.5 -56.9°
